This is the latest recevied weather packets stored in our database for station/object VK1KCM-5. If no packets are shown the sender has not sent any weather packets the latest 10 day(s).
| Time | Temp. | Humidity | Pressure | Rain* | Wind** | Luminosity | Snow |
|---|---|---|---|---|---|---|---|
| 1787808832 | 16.11° C | 65% | 1022.4 hPa | 0 mm | - | - | - |
| 1787808559 | 16.11° C | 64% | 1022.1 hPa | 0 mm | - | - | - |
| 1787808312 | 16.11° C | 65% | 1022.1 hPa | 0 mm | - | - | - |
| 1787808013 | 16.11° C | 64% | 1022.1 hPa | 0 mm | - | - | - |
| 1787807727 | 16.67° C | 63% | 1022.4 hPa | 0 mm | - | - | - |
| 1787807477 | 16.67° C | 63% | 1022.4 hPa | 0 mm | - | - | - |
| 1787807212 | 16.67° C | 62% | 1021.9 hPa | 0 mm | - | - | - |
| 1787806963 | 16.67° C | 63% | 1022.1 hPa | 0 mm | - | - | - |
| 1787806668 | 16.67° C | 62% | 1022.1 hPa | 0 mm | - | - | - |
| 1787806424 | 16.67° C | 61% | 1022 hPa | 0 mm | - | - | - |
| 1787806160 | 16.11° C | 63% | 1022.2 hPa | 0 mm | - | - | - |
| 1787805898 | 16.11° C | 62% | 1022.3 hPa | 0 mm | - | - | - |
| 1787805627 | 16.67° C | 61% | 1021.9 hPa | 0 mm | - | - | - |
| 1787805383 | 16.67° C | 61% | 1021.9 hPa | 0 mm | - | - | - |
| 1787805122 | 17.22° C | 60% | 1022.2 hPa | 0 mm | - | - | - |
| 1787804852 | 17.78° C | 58% | 1021.8 hPa | 0 mm | - | - | - |
| 1787804588 | 17.22° C | 60% | 1021.8 hPa | 0 mm | - | - | - |
| 1787804307 | 17.22° C | 59% | 1021.9 hPa | 0 mm | - | - | - |
| 1787804024 | 16.67° C | 58% | 1022.3 hPa | 0 mm | - | - | - |
| 1787803753 | 17.78° C | 56% | 1021.9 hPa | 0 mm | - | - | - |
| 1787803496 | 17.22° C | 58% | 1022.2 hPa | 0 mm | - | - | - |
| 1787803246 | 17.22° C | 58% | 1022.2 hPa | 0 mm | - | - | - |
| 1787803007 | 16.67° C | 58% | 1022.4 hPa | 0 mm | - | - | - |
| 1787802762 | 16.67° C | 59% | 1022.3 hPa | 0 mm | - | - | - |
| 1787802461 | 17.22° C | 59% | 1022.4 hPa | 0 mm | - | - | - |
* Rain latest hour (hover to see other rain measurements)
** Current wind speed in m/s (hover to see current wind gust speed)